User: anonymous
Location: Unspecified
(0.0000°N, 0.0000°E)
Time: 16:48:05
(UTC+00:00)
Language:

Courier 1B - Orbit

View from above orbital plane
View from above orbital plane
View from above satellite
View from above satellite

Ground track
Ground track

The orbit data is extracted from the following two-line orbital elements,

1 00058U 60013A   14209.39015651  .00000097  00000-0  14132-4 0  7257
2 00058 028.3272 207.2670 0164894 260.8260 097.3597 13.46278215649052
Epoch (UTC): 28 July 2014 09:21:49
Eccentricity: 0.0164894
inclination: 28.3272°
perigee height: 963 km
apogee height: 1209 km
right ascension of ascending node: 207.2670°
argument of perigee: 260.8260°
revolutions per day: 13.46278215
mean anomaly at epoch: 97.3597°
orbit number at epoch: 64905

The dashed part of the orbit path shows where the satellite is in the earth's shadow,  

DLR